Tracking 35048 objects as of 19-Aug-2026
HD Live streaming from Space Station
objects crossing your sky now

FORMOSAT 3B

Track FORMOSAT 3B now!
10-day predictions
FORMOSAT 3B is classified as:


NORAD ID: 29048
Int'l Code: 2006-011B
Launch date: April 15, 2006
Source: Taiwan (Republic of China) (ROC)
Launch site: AIR FORCE WESTERN TEST RANGE (AFWTR)

Uplink (MHz):
Downlink (MHz):
Beacon (MHz):
Mode:
Call sign:
Status: Unknown

Your satellite tracking list
Your tracking list is empty




NASA's NSSDC Master Catalog

Two Line Element Set (TLE):
1 29048U 06011B   26231.06240275  .00000259  00000-0  11216-3 0  9991
2 29048  71.9647  90.7995 0040599  91.6158 268.9630 14.31428836 65774
Source of the keplerian elements: AFSPC